Theta_e
322 323 323 325 326 328 331 328 325 328 329 327 324 341 343 342 343 346 345 335 335 330 335 339 338 336 337 336 336 341 345 346 345 344 340 331 323 320 320 321 320 320 320 319 318 318 320 323 326
320 323 323 324 326 329 332 326 327 327 325 325 324 334 338 340 342 346 342 335 337 330 331 337 337 336 334 333 334 340 344 344 344 343 339 328 322 320 320 321 321 321 320 320 319 319 321 323 325
319 322 323 325 325 328 330 326 326 326 326 327 330 332 334 336 335 344 344 338 341 333 328 336 337 336 336 334 331 335 343 343 343 342 337 324 321 321 322 322 322 321 321 320 320 319 319 321 322
319 322 321 325 326 325 326 326 325 326 327 328 327 334 336 338 338 340 343 342 341 331 330 335 338 337 337 336 332 329 337 341 341 340 334 323 322 323 324 323 322 321 321 320 320 320 319 319 319
320 321 324 325 325 324 325 324 324 325 326 327 326 328 333 335 338 337 340 341 337 329 328 335 338 337 337 336 332 328 332 335 337 337 332 322 322 324 324 323 322 321 321 320 320 320 320 319 319
321 320 322 323 323 323 324 323 323 324 323 324 325 325 328 328 335 337 339 341 336 327 325 332 338 338 337 336 330 326 326 329 331 329 327 322 323 324 323 322 322 321 320 320 320 320 319 319 319
321 322 321 321 322 322 322 322 323 322 322 324 322 325 328 328 328 339 339 340 337 328 325 330 337 338 336 335 326 323 321 320 323 331 326 322 323 324 323 322 321 320 320 320 319 319 319 318 318
318 321 321 321 321 320 321 321 320 321 322 320 320 324 325 324 325 331 341 341 339 330 325 327 333 337 336 334 326 323 321 319 323 329 324 322 322 323 322 321 321 320 320 319 319 318 318 317 317
317 320 320 320 321 320 319 321 320 319 319 319 319 320 320 323 325 327 341 341 339 334 329 327 331 336 336 333 328 326 323 322 323 325 324 322 321 322 322 322 321 320 319 319 318 318 318 317 317
317 318 318 318 320 320 319 318 318 318 318 319 319 319 320 327 326 327 338 340 339 338 335 328 329 331 333 334 331 328 326 323 322 322 323 321 321 321 322 321 320 320 319 319 318 318 318 318 318
314 317 316 316 317 317 317 317 317 318 319 319 318 318 318 319 322 336 338 340 341 339 338 336 330 329 331 333 333 331 328 325 322 321 320 320 321 321 321 321 320 320 319 319 319 318 319 320 320
315 314 315 316 315 316 315 315 315 316 317 317 316 317 316 317 318 321 334 337 336 338 340 340 337 332 330 332 331 331 329 327 324 322 322 321 321 321 321 321 320 320 319 319 319 319 320 328 324
312 312 312 312 312 312 312 314 315 315 315 315 316 316 317 317 319 321 325 330 333 334 338 342 342 341 333 330 331 330 330 328 327 326 323 323 322 322 322 321 321 320 320 320 319 320 326 328 328
312 312 313 313 313 312 313 315 313 315 316 316 316 316 316 317 319 321 323 326 325 327 333 335 340 344 340 332 329 331 332 331 330 328 327 325 324 323 322 322 321 321 320 320 320 321 327 333 330
312 314 314 314 315 315 313 315 314 315 314 314 315 315 315 316 316 316 319 319 324 325 324 325 329 341 344 341 333 327 327 331 332 330 329 328 327 326 325 324 322 321 321 320 320 322 330 333 335
313 312 314 314 313 313 314 316 316 314 314 315 314 315 315 316 316 316 317 317 317 320 321 323 327 336 346 346 342 334 328 326 329 332 330 331 330 330 330 329 326 325 323 322 320 321 324 331 334
311 312 312 314 313 313 314 315 316 316 314 315 315 314 315 316 316 316 316 316 316 317 318 322 326 330 335 335 335 336 338 336 330 328 327 327 327 328 326 328 329 328 328 327 322 321 322 326 333
313 313 313 314 315 314 315 316 316 315 315 315 315 315 315 316 316 316 316 315 315 316 317 321 326 327 331 336 340 338 331 337 341 341 339 335 328 328 328 330 329 330 329 328 327 323 321 326 330
312 313 313 314 315 313 316 316 316 315 314 315 316 316 316 315 316 316 316 316 316 317 316 319 327 328 328 331 334 336 334 332 335 338 339 340 331 328 328 329 331 330 329 327 326 325 323 328 338
312 313 314 315 315 314 316 316 316 316 315 315 316 316 316 316 315 315 315 315 315 316 316 318 321 325 327 329 328 332 334 332 330 332 340 339 329 327 328 335 335 337 337 332 327 326 326 340 341
314 314 315 315 315 314 314 316 317 316 314 315 315 315 315 314 315 314 315 315 315 315 316 316 317 319 323 328 332 333 336 335 331 329 336 338 331 329 338 335 331 329 333 332 336 332 341 340 339
315 315 314 314 315 316 314 317 318 317 317 316 315 316 315 314 313 314 316 316 316 316 316 316 316 316 317 320 325 331 329 328 323 323 328 336 340 338 341 340 336 335 332 329 330 336 336 332 332
315 314 314 315 316 315 317 316 317 315 317 317 317 315 315 316 315 315 315 315 316 316 316 316 317 316 316 317 320 322 329 329 326 325 330 334 340 340 338 339 340 337 337 336 330 330 330 328 327
314 314 315 313 315 317 317 317 318 317 317 316 316 317 316 314 314 313 313 314 315 316 316 316 316 316 316 316 317 321 325 331 329 328 334 339 339 340 339 336 336 338 338 337 333 330 328 328 328
314 315 317 317 318 318 317 316 317 317 317 316 317 315 313 313 314 314 313 313 313 315 316 316 315 316 316 317 317 319 323 330 335 335 333 333 336 335 334 334 333 335 337 333 331 330 330 329 331
315 316 317 319 319 318 317 317 318 318 316 316 313 312 312 312 312 312 313 313 312 314 316 318 318 317 317 317 316 323 327 334 337 337 332 328 325 326 326 326 329 333 332 332 332 333 334 330 327
316 316 316 317 317 320 318 318 317 317 318 315 313 312 312 312 313 313 314 313 313 314 316 319 321 320 318 317 319 326 330 324 318 316 316 315 315 314 314 315 315 318 327 329 333 334 334 332 328
315 315 317 318 320 321 319 318 318 317 316 315 313 312 311 312 313 314 315 315 313 314 316 318 319 322 322 323 323 319 317 317 315 315 314 314 313 314 315 314 315 317 320 325 329 334 333 335 331
316 316 318 317 320 322 321 318 317 317 315 314 313 311 312 314 314 315 315 315 314 314 315 317 318 318 321 321 320 319 317 315 316 316 316 316 315 314 314 317 320 321 323 324 326 330 332 334 334
314 315 316 322 320 320 320 318 315 316 313 311 312 313 314 314 313 314 315 315 315 315 314 315 315 316 316 318 317 317 317 317 317 317 317 316 316 314 315 319 321 324 325 325 329 330 330 330 329
Wind_Speed
13 15 14 6 3 1 2 4 2 8 2 6 7 3 3 4 2 2 1 17 12 22 25 25 26 25 24 22 21 24 27 26 23 20 15 13 14 15 15 16 15 14 13 12 11 11 11 11 10
13 13 8 2 3 5 3 0 5 6 9 10 2 2 1 3 3 2 11 18 11 19 25 27 27 26 24 22 22 25 28 27 24 20 15 15 16 16 16 15 15 14 12 11 11 11 10 10 9
11 9 4 1 2 6 4 3 4 9 9 7 1 3 3 4 4 1 7 15 13 22 25 27 27 26 24 23 23 25 28 26 24 21 18 17 18 18 17 16 14 14 12 11 10 9 9 8 7
3 3 3 3 6 1 1 2 7 8 6 11 9 2 2 4 2 2 3 11 9 24 26 26 27 26 24 23 22 25 28 27 24 21 19 21 21 20 18 16 15 14 13 11 9 8 8 7 6
1 2 4 2 4 2 2 1 5 6 5 9 13 8 2 2 4 6 5 6 7 22 26 25 26 25 24 22 22 24 28 28 26 24 21 21 21 20 19 17 16 14 13 11 9 7 6 6 5
3 1 4 9 8 3 3 5 5 5 8 10 11 15 4 5 5 5 6 7 9 19 23 24 25 25 24 22 22 25 27 28 27 25 25 24 21 19 18 16 15 14 12 10 8 6 5 4 3
3 3 5 5 6 6 3 1 0 4 9 3 9 8 6 5 5 8 8 8 12 19 22 24 26 26 24 23 23 24 25 27 27 27 25 24 23 21 19 16 15 13 12 10 8 6 5 3 2
6 2 4 5 7 9 3 4 0 6 5 7 7 2 8 14 15 11 13 13 14 20 22 24 26 28 27 25 24 24 24 25 27 26 25 24 23 21 19 17 16 14 12 10 8 7 5 3 3
7 4 7 7 8 5 3 3 9 7 12 8 9 8 20 19 16 17 16 15 17 21 23 26 28 30 29 27 26 25 24 25 26 27 26 25 25 23 21 19 16 14 12 11 9 8 6 5 5
5 5 8 5 8 8 9 8 13 7 14 11 15 14 15 14 14 19 23 20 19 21 24 27 29 29 31 31 30 29 28 28 29 29 29 28 27 25 23 20 18 16 14 12 11 9 7 7 7
6 7 6 6 12 11 13 12 10 10 13 15 14 20 18 14 15 16 23 20 20 22 25 28 29 31 33 34 34 33 32 32 32 31 30 30 29 27 25 23 20 19 16 14 12 10 9 9 10
5 7 7 4 8 7 10 10 9 12 17 19 18 19 19 16 17 20 19 20 22 21 24 27 29 32 32 34 35 36 36 36 35 35 33 32 31 29 27 25 23 20 18 15 13 11 10 11 11
5 4 5 9 10 11 7 14 11 8 16 12 14 14 14 15 14 18 23 20 19 20 23 25 28 31 33 35 36 38 39 38 38 37 36 34 32 30 28 27 25 22 20 17 15 13 10 10 9
5 4 7 8 10 8 8 13 3 5 12 16 14 12 11 10 12 17 22 17 21 22 20 19 25 30 34 36 38 40 39 39 39 38 37 36 33 31 29 28 27 24 22 19 17 15 13 12 11
3 5 6 12 15 8 3 11 8 12 9 10 11 13 13 12 13 16 18 21 25 22 23 25 25 28 33 34 34 34 36 38 40 40 40 38 36 34 31 30 29 26 24 21 20 18 16 15 14
2 2 6 1 4 2 7 14 9 4 1 6 10 10 11 10 10 17 21 23 22 28 30 31 30 26 28 29 29 32 35 37 40 43 42 39 29 31 31 32 30 29 26 24 22 21 21 19 17
1 5 3 4 4 3 3 3 12 14 10 12 10 11 13 13 13 14 19 26 24 25 30 33 34 29 27 26 28 30 32 34 37 39 38 33 36 41 41 37 34 31 31 27 25 24 23 22 20
4 3 3 7 2 9 13 14 12 20 15 13 15 13 12 14 14 12 9 16 20 23 25 33 38 37 34 34 36 35 30 33 34 36 36 30 37 42 42 41 36 33 34 28 26 25 23 22 18
5 6 8 11 10 5 10 10 12 15 13 15 19 16 14 15 15 15 14 13 14 13 20 27 37 37 36 36 39 40 37 32 33 34 33 33 32 39 40 35 33 29 31 29 27 23 20 19 15
8 9 10 10 7 6 12 13 14 11 11 16 17 17 17 17 21 21 20 20 20 19 15 17 31 39 39 40 39 39 39 37 35 35 35 33 32 35 33 27 26 26 23 23 27 25 19 16 10
8 10 9 12 11 7 9 13 10 9 8 13 17 20 19 21 21 21 21 20 20 22 23 21 18 23 36 40 41 42 41 36 37 37 34 31 32 32 29 26 33 28 37 32 25 23 15 11 6
11 10 12 9 7 11 2 10 15 10 11 10 16 18 15 14 14 17 21 24 22 22 22 23 26 25 26 35 44 46 45 43 40 36 33 32 31 35 34 32 30 35 38 38 39 36 27 29 26
8 5 7 9 15 7 12 8 6 4 12 14 13 8 8 11 13 17 20 24 27 27 24 23 22 26 28 31 36 45 48 46 42 38 35 32 32 33 33 33 32 32 28 29 31 38 52 49 44
4 8 8 2 5 12 17 14 9 8 8 5 4 6 6 14 15 18 21 23 25 27 28 28 29 30 31 33 35 41 46 46 45 40 33 32 31 32 32 29 28 31 33 34 31 29 30 34 34
10 8 8 8 8 12 2 6 11 10 14 11 4 9 11 16 16 20 24 27 28 27 27 30 32 34 32 34 39 41 44 46 42 36 33 32 32 32 33 30 31 35 36 33 30 30 31 34 43
7 9 9 11 11 14 9 8 7 7 9 1 5 8 14 20 23 25 25 26 28 30 27 29 31 34 33 34 39 43 44 40 38 32 28 24 23 24 25 27 30 32 31 30 31 30 28 27 37
5 8 5 11 11 9 10 15 11 11 7 2 9 16 21 23 28 31 32 31 31 25 26 28 26 26 25 26 33 37 31 25 25 21 19 18 17 19 22 25 27 28 30 31 33 33 30 29 29
5 3 6 5 8 14 9 13 10 8 3 8 11 20 25 27 27 27 27 29 28 20 22 21 23 17 12 14 22 24 25 23 20 17 11 8 8 11 13 16 20 24 27 27 27 30 33 33 32
9 7 3 4 4 6 12 7 2 3 5 8 11 19 17 17 20 22 24 23 20 16 16 14 16 15 12 15 18 20 21 21 20 16 10 7 5 6 9 12 13 15 20 22 23 23 24 26 27
5 11 12 9 6 6 6 10 7 9 4 6 15 13 12 13 17 18 18 18 17 14 14 10 17 12 17 17 16 18 20 16 18 17 15 13 10 7 8 10 11 13 15 17 18 18 19 20 20
Wind_Direction
322 334 337 341 240 256 163 115 341 4 22 348 293 24 72 5 351 27 184 163 183 184 177 180 177 177 177 177 177 173 174 171 169 168 163 156 151 150 146 142 140 140 144 146 142 134 129 127 124
315 330 342 28 232 206 145 203 18 343 313 326 113 244 325 59 25 63 124 165 175 189 183 182 181 181 182 183 182 177 176 175 175 175 169 161 158 157 153 149 147 146 147 144 142 139 134 129 127
306 324 335 11 148 221 150 114 350 326 331 352 40 38 359 350 358 74 166 169 177 188 188 185 185 185 187 189 189 187 182 182 183 180 175 168 165 162 157 156 153 153 152 149 144 139 136 135 133
295 323 51 245 231 215 97 95 352 348 9 28 6 61 19 22 14 47 144 184 190 184 189 189 188 190 192 193 194 193 191 189 190 188 181 173 169 165 163 163 162 160 156 152 147 142 140 138 140
186 136 239 210 247 220 234 325 343 336 351 14 0 5 301 101 76 112 136 178 200 183 189 192 192 194 197 200 198 198 196 196 194 192 186 180 175 172 171 170 169 165 163 157 153 152 150 150 153
129 146 211 240 235 234 272 307 312 353 8 341 354 331 288 186 167 139 140 167 184 187 189 195 197 199 201 206 205 202 201 199 198 194 186 182 180 180 180 178 176 173 170 163 161 164 168 167 175
168 183 231 238 255 270 245 263 56 347 339 12 350 322 290 257 238 189 166 164 181 190 194 197 200 202 205 207 207 204 202 199 197 194 190 186 184 186 187 187 185 182 177 170 171 179 190 191 195
136 198 186 223 237 260 229 257 345 346 328 323 334 346 308 320 305 252 191 182 185 192 200 203 204 204 206 207 206 206 201 198 196 197 194 193 193 192 193 194 193 191 187 181 183 194 204 208 222
151 183 221 226 212 240 164 307 305 299 286 295 287 291 309 300 274 257 217 195 193 198 205 207 208 207 206 208 208 208 205 202 200 200 201 199 201 199 200 202 201 199 199 195 198 206 214 223 234
180 215 220 222 233 257 277 286 293 289 290 281 282 289 318 321 280 242 221 210 204 208 211 213 214 214 209 208 208 209 209 207 206 205 205 206 206 205 206 207 208 208 210 210 212 218 229 236 245
176 230 211 234 236 249 273 268 265 271 280 278 287 301 311 306 302 255 224 224 222 220 219 219 219 218 216 212 211 211 212 212 212 211 210 210 210 213 213 213 213 215 217 222 227 233 246 254 251
199 234 215 243 244 257 260 277 264 244 260 282 281 288 290 286 277 269 253 242 245 241 237 231 226 225 221 219 217 218 216 215 216 217 215 215 215 216 219 221 221 222 225 231 239 248 258 259 247
212 236 223 257 271 259 249 258 259 254 264 288 304 297 299 277 262 261 255 250 252 254 249 236 236 232 229 224 222 223 223 224 221 221 222 222 221 222 225 227 230 231 233 238 246 257 257 254 246
182 234 273 283 265 263 256 264 210 248 293 289 290 289 288 294 274 266 246 245 257 249 244 246 244 236 233 229 228 228 226 229 230 230 229 228 229 229 230 235 238 239 242 246 252 257 253 247 250
173 265 283 258 267 254 214 263 244 270 273 275 294 290 280 278 269 267 256 260 252 243 265 264 253 244 235 233 237 237 240 236 237 237 234 233 232 234 233 237 241 245 247 248 256 259 261 255 259
236 252 275 337 315 298 212 270 297 284 359 295 302 309 312 296 291 260 256 252 247 247 255 259 249 242 237 234 234 236 238 239 240 240 240 239 245 252 250 245 244 247 248 251 252 257 263 264 264
99 249 229 301 293 255 255 298 316 294 299 301 302 306 307 305 303 310 259 239 240 246 245 245 245 236 220 219 228 232 237 241 243 247 249 243 229 236 255 255 253 252 253 251 252 257 262 268 277
161 222 242 276 242 307 288 281 280 287 305 292 298 294 290 300 316 327 311 261 247 240 243 238 240 237 233 229 228 231 235 240 244 248 251 246 232 236 241 237 243 246 251 253 257 260 268 272 274
258 262 275 277 279 267 281 281 289 295 293 281 289 282 275 282 296 303 309 306 303 282 251 239 235 238 238 236 235 232 231 232 240 245 250 248 234 234 238 245 249 254 255 253 262 254 262 268 275
234 267 275 276 268 214 293 287 290 274 269 273 270 276 275 283 291 297 304 301 290 293 283 262 243 237 240 242 240 239 236 235 236 242 248 247 235 230 236 241 249 249 251 251 244 252 247 242 251
231 248 256 278 314 258 281 276 263 265 238 258 256 256 270 276 292 301 304 303 296 281 279 274 264 251 246 243 243 241 239 239 241 242 243 246 237 233 227 241 248 259 255 250 256 243 213 224 257
261 238 256 268 297 295 351 288 291 276 254 239 254 256 275 304 305 308 307 305 300 289 277 271 265 261 254 245 243 243 243 242 244 244 240 239 229 232 233 240 240 233 240 243 250 243 239 255 245
253 212 255 266 281 275 262 268 260 225 262 267 267 286 337 341 345 339 334 314 293 295 288 273 265 264 262 256 248 244 244 245 246 247 241 238 234 234 241 246 245 244 244 241 240 246 255 249 258
278 278 278 238 252 257 263 253 278 259 288 280 249 341 6 351 345 348 346 333 316 301 295 286 278 271 268 266 258 247 245 243 243 239 238 234 232 234 236 239 240 239 242 243 249 247 247 246 253
245 257 276 265 238 265 325 243 257 273 266 269 313 359 352 352 341 332 336 334 326 319 300 289 281 274 269 264 254 246 242 241 242 239 236 236 230 229 236 238 240 240 242 237 240 242 241 247 241
213 216 246 270 273 284 298 257 267 282 280 164 43 5 343 341 339 332 328 326 324 321 317 310 287 274 270 266 250 238 235 236 234 233 230 225 225 232 236 244 248 247 244 242 246 247 250 243 229
182 216 278 271 264 269 257 267 271 248 242 183 349 352 349 342 336 332 328 326 322 320 320 325 301 279 275 265 244 230 224 218 209 204 203 211 219 224 228 230 235 239 242 244 242 238 242 240 235
249 165 230 229 278 275 255 277 270 255 198 346 347 343 340 333 326 324 323 320 315 315 317 323 332 314 280 244 219 208 202 202 199 194 182 181 209 225 234 238 239 239 240 239 238 238 237 240 237
234 232 214 276 262 272 292 273 206 243 337 332 345 328 318 318 323 326 328 326 315 305 322 322 325 323 286 234 213 210 207 197 196 191 182 194 207 224 227 236 240 236 238 238 235 232 232 233 234
271 268 263 245 237 242 276 268 248 265 339 329 313 309 309 315 318 325 328 345 351 348 315 287 324 319 298 265 254 242 227 228 213 208 205 206 209 209 201 206 225 220 223 229 229 228 225 225 228